1494208800.63,9812,14.69,72708.3,-5.11,-19.17,-17.07,0,*68
1494208801.86,9813,14.69,72708.3,-5.09,-19.27,-16.89,0,*64
1494208803.11,9814,14.69,72704.0,-5.11,-19.95,-17.21,0,*60
1494208804.3,9815,14.69,72694.0,-5.09,-20.05,-17.31,0,*6A
1494208805.55,9816,14.69,72696.0,-5.11,-20.09,-17.21,0,*6D
1494208806.77,9817,14.75,72702.5,-5.09,-20.05,-17.07,0,*6D
1494208808.03,9818,14.75,72706.3,-5.11,-20.39,-17.41,0,*66
1494208809.25,9819,14.69,72698.8,-5.11,-20.43,-17.49,0,*62
1494208810.48,9820,14.75,72712.0,-5.11,-20.25,-17.35,0,*63
1494208811.73,9821,14.69,72718.5,-5.11,-20.43,-17.63,0,*61
1494208812.96,9822,14.69,72716.8,-5.11,-20.39,-17.73,0,*6E
1494208814.21,9823,14.69,72712.3,-5.09,-19.61,-17.03,0,*66
1494208815.41,9824,14.75,72712.3,-5.09,-20.25,-17.69,0,*67
1494208816.64,9825,14.75,72718.8,-5.09,-20.49,-18.07,0,*6B
1494208817.84,9826,14.75,72716.5,-5.09,-20.73,-18.49,0,*6B
1494208819.09,9827,14.75,72716.8,-5.09,-20.53,-18.35,0,*63
1494208820.29,9828,14.75,72708.8,-5.09,-20.73,-18.49,0,*65
1494208821.5,9829,14.75,72708.8,-5.09,-21.13,-18.59,0,*62
1494208822.72,9830,14.69,72704.3,-5.09,-21.17,-18.55,0,*62
1494208823.94,9831,14.69,72708.0,-5.09,-21.33,-18.25,0,*62
1494208825.17,9832,14.75,72718.3,-5.11,-21.17,-17.87,0,*69
1494208826.39,9833,14.75,72722.5,-5.09,-21.43,-17.93,0,*65
1494208827.62,9834,14.69,72722.0,-5.07,-21.47,-17.87,0,*6D
1494208828.85,9835,14.75,72712.3,-5.09,-21.33,-17.69,0,*61
1494208830.05,9836,14.69,72708.0,-5.09,-21.47,-17.69,0,*61
1494208831.25,9837,14.69,72704.0,-5.09,-21.13,-17.49,0,*63
1494208832.5,9838,14.69,72704.8,-5.09,-20.83,-17.59,0,*65
1494208833.72,9839,14.69,72704.3,-5.09,-20.35,-17.49,0,*68
1494208834.99,9840,14.69,72708.5,-5.07,-20.15,-17.79,0,*69
1494208836.23,9841,14.75,72714.3,-5.07,-20.35,-18.45,0,*6A
1494208837.43,9842,14.69,72718.5,-5.05,-20.43,-18.49,0,*66
1494208838.65,9843,14.69,72714.5,-5.07,-20.29,-18.49,0,*69
1494208839.88,9844,14.69,72714.8,-5.07,-20.29,-18.55,0,*63
1494208841.15,9845,14.75,72718.3,-5.07,-20.49,-18.55,0,*64
1494208842.39,9846,14.69,72718.3,-5.07,-20.79,-18.79,0,*6A
1494208843.59,9847,14.69,72716.0,-5.09,-21.13,-18.83,0,*6D
1494208844.79,9848,14.69,72716.0,-5.09,-21.13,-18.69,0,*66
1494208845.99,9849,14.69,72716.5,-5.09,-21.13,-18.73,0,*6C
1494208847.23,9850,14.69,72714.3,-5.11,-21.33,-18.79,0,*65
1494208848.46,9851,14.69,72710.0,-5.07,-21.13,-18.49,0,*62
1494208849.71,9852,14.69,72710.0,-5.07,-21.23,-18.65,0,*6C
1494208850.94,9853,14.69,72706.3,-5.09,-21.53,-18.69,0,*68
1494208852.17,9854,14.69,72704.5,-5.09,-21.67,-18.69,0,*68
1494208853.38,9855,14.69,72700.3,-5.09,-21.47,-18.59,0,*68
1494208854.61,9856,14.69,72704.0,-5.09,-21.33,-18.11,0,*64
1494208855.86,9857,14.69,72700.8,-5.07,-21.09,-17.79,0,*63
1494208857.1,9858,14.69,72704.0,-5.07,-21.09,-17.79,0,*6C
1494208858.35,9859,14.69,72710.0,-5.07,-21.09,-18.01,0,*6D
1494208859.63,9860,14.69,72706.0,-5.07,-21.23,-18.31,0,*6C
1494208860.9,9861,14.75,72710.5,-5.07,-21.27,-18.55,0,*6B
1494208862.15,9862,14.75,72710.3,-5.07,-20.93,-18.35,0,*60
1494208863.4,9863,14.69,72708.3,-5.07,-20.83,-18.49,0,*6B
1494208864.63,9864,14.69,72708.8,-5.05,-20.83,-18.65,0,*60
1494208865.85,9865,14.75,72710.8,-5.07,-20.93,-18.83,0,*6A
1494208867.09,9866,14.69,72702.3,-5.07,-20.99,-19.07,0,*6E
1494208868.33,9867,14.69,72702.8,-5.07,-20.99,-19.07,0,*6F
1494208869.58,9868,14.69,72704.8,-5.07,-20.69,-18.93,0,*63
1494208870.82,9869,14.69,72710.8,-5.07,-20.79,-18.83,0,*62
1494208872.04,9870,14.69,72714.5,-5.07,-21.09,-19.37,0,*62
1494208873.31,9871,14.69,72714.8,-5.07,-21.27,-19.41,0,*6E
1494208874.56,9872,14.69,72712.3,-5.07,-21.27,-19.37,0,*6C
1494208875.79,9873,14.69,72712.0,-5.07,-21.39,-19.37,0,*62
1494208876.99,9874,14.75,72714.5,-5.05,-21.13,-19.13,0,*69
1494208878.22,9875,14.69,72708.5,-5.05,-21.23,-18.99,0,*68
1494208879.44,9876,14.75,72710.8,-5.07,-21.47,-19.13,0,*68
1494208880.67,9877,14.75,72712.3,-5.07,-21.73,-19.37,0,*68
1494208881.9,9878,14.75,72710.5,-5.07,-21.77,-19.37,0,*63
1494208883.12,9879,14.69,72704.0,-5.07,-21.73,-19.37,0,*66
1494208884.36,9880,14.75,72708.0,-5.07,-21.57,-19.07,0,*65
1494208885.59,9881,14.69,72704.5,-5.05,-21.63,-19.27,0,*63
1494208886.81,9882,14.75,72708.3,-5.07,-21.63,-19.13,0,*65
1494208888.06,9883,14.69,72710.5,-5.07,-21.77,-19.23,0,*62
1494208889.27,9884,14.69,72708.0,-5.07,-21.47,-19.07,0,*60
1494208890.53,9885,14.69,72710.3,-5.07,-21.77,-19.27,0,*60
1494208891.77,9886,14.69,72710.3,-5.07,-21.57,-18.83,0,*6E
1494208893.02,9887,14.75,72714.8,-5.07,-21.23,-18.69,0,*68
1494208894.24,9888,14.69,72712.3,-5.07,-21.47,-18.83,0,*61
1494208895.45,9889,14.69,72710.0,-5.07,-21.63,-18.99,0,*6D
1494208896.67,9890,14.69,72704.5,-5.07,-21.43,-18.69,0,*68
1494208897.89,9891,14.69,72704.3,-5.07,-21.47,-18.79,0,*6C
1494208899.11,9892,14.75,72706.3,-5.07,-21.43,-18.69,0,*6A
1494208900.34,9893,14.69,72706.0,-5.05,-21.27,-18.69,0,*6B
1494208901.54,9894,14.69,72704.0,-5.05,-21.43,-18.79,0,*6F
1494208902.78,9895,14.75,72714.8,-5.07,-21.57,-18.83,0,*6C
1494208904.03,9896,14.69,72708.8,-5.05,-21.57,-18.93,0,*6C
1494208905.23,9897,14.69,72706.8,-5.05,-21.47,-18.83,0,*6D
1494208906.42,9898,14.69,72708.0,-5.05,-21.63,-18.83,0,*64
1494208907.62,9899,14.69,72706.8,-5.05,-21.73,-19.07,0,*69
1494208908.83,9900,14.75,72700.3,-5.05,-21.77,-19.13,0,*69
1494208910.02,9901,14.69,72702.5,-5.05,-21.63,-19.07,0,*68
1494208911.21,9902,14.69,72714.8,-5.05,-21.63,-18.99,0,*6D
1494208912.41,9903,14.75,72712.3,-5.05,-21.63,-18.99,0,*6C
1494208913.66,9904,14.75,72708.8,-5.05,-21.57,-18.93,0,*66
1494208914.89,9905,14.69,72688.0,-5.05,-21.63,-18.93,0,*60
1494208916.11,9906,14.69,72690.0,-5.05,-21.87,-19.07,0,*65
1494208917.31,9907,14.69,72688.8,-5.05,-21.73,-19.07,0,*6F
1494208918.51,9908,14.69,72692.3,-5.05,-21.39,-18.65,0,*6B
1494208919.7,9909,14.69,72688.3,-5.05,-21.47,-18.79,0,*6E
1494208920.93,9910,14.69,72688.0,-5.05,-21.63,-18.93,0,*64
1494208922.16,9911,14.69,72696.3,-5.05,-21.27,-18.65,0,*6C
1494208923.36,9912,14.69,72700.3,-5.05,-21.47,-18.83,0,*61
1494208924.57,9913,14.69,72706.5,-5.03,-21.43,-18.79,0,*67
1494208925.82,9914,14.69,72704.3,-5.01,-21.67,-18.93,0,*60
1494208927.07,9915,14.75,72702.8,-5.03,-21.67,-19.03,0,*6B
1494208928.3,9916,14.69,72702.5,-5.05,-21.87,-19.13,0,*61
1494208929.57,9917,14.69,72702.3,-5.03,-21.67,-18.89,0,*6A
1494208930.84,9918,14.75,72700.8,-5.03,-21.67,-18.89,0,*65
1494208932.11,9919,14.75,72704.3,-5.03,-21.23,-18.59,0,*69
1494208933.32,9920,14.69,72708.3,-5.01,-21.17,-18.59,0,*66
1494208934.57,9921,14.69,72708.3,-5.03,-21.33,-18.65,0,*6C
1494208935.85,9922,14.69,72706.3,-5.03,-21.53,-18.93,0,*60
1494208937.04,9923,14.75,72708.8,-5.01,-21.39,-18.79,0,*6B
1494208938.28,9924,14.69,72710.0,-5.03,-21.39,-18.89,0,*61
1494208939.53,9925,14.69,72716.3,-5.01,-21.83,-19.31,0,*61
1494208940.75,9926,14.69,72708.5,-5.01,-21.73,-19.23,0,*6E
1494208942.03,9927,14.75,72712.0,-5.03,-21.53,-18.93,0,*65
1494208943.25,9928,14.69,72712.5,-5.03,-21.09,-18.73,0,*6B
1494208944.47,9929,14.69,72706.8,-5.03,-21.17,-18.65,0,*62
1494208945.69,9930,14.69,72712.3,-5.03,-21.09,-18.65,0,*65
1494208946.91,9931,14.69,72714.8,-5.03,-20.93,-18.49,0,*68
1494208948.11,9932,14.69,72716.3,-5.01,-20.89,-18.45,0,*6E
1494208949.34,9933,14.69,72716.3,-5.03,-21.17,-18.65,0,*69
1494208950.55,9934,14.69,72716.0,-5.03,-21.43,-19.07,0,*6A
1494208951.79,9935,14.69,72716.3,-5.01,-21.57,-19.23,0,*6A
1494208953.02,9936,14.75,72722.5,-5.01,-21.53,-19.17,0,*6A
1494208954.23,9937,14.69,72718.3,-5.03,-21.39,-19.03,0,*60
1494208955.48,9938,14.69,72712.3,-5.01,-21.23,-18.89,0,*65
1494208956.68,9939,14.69,72708.3,-5.01,-21.17,-18.73,0,*66
1494208957.92,9940,14.69,72702.0,-5.01,-21.23,-18.89,0,*6A
1494208959.15,9941,14.69,72698.5,-5.03,-21.43,-19.17,0,*69
1494208960.34,9942,14.69,72698.8,-5.01,-21.17,-18.79,0,*60
1494208961.58,9943,14.69,72702.5,-5.01,-21.23,-18.93,0,*62
1494208962.78,9944,14.69,72706.8,-5.01,-21.39,-19.17,0,*63
1494208964.03,9945,14.69,72710.5,-5.03,-21.17,-18.89,0,*6A
1494208965.27,9946,14.69,72716.5,-5.03,-21.17,-18.93,0,*62
1494208966.49,9947,14.69,72716.0,-5.01,-21.09,-18.89,0,*65
1494208967.68,9948,14.69,72722.0,-5.01,-21.17,-19.03,0,*66
1494208968.91,9949,14.69,72722.5,-5.01,-21.67,-19.37,0,*67
1494208970.13,9950,14.69,72716.5,-5.01,-21.67,-19.51,0,*6F
1494208971.38,9951,14.69,72714.8,-5.03,-21.33,-19.17,0,*6F
1494208972.62,9952,14.69,72716.5,-5.03,-21.33,-19.07,0,*6D
1494208973.87,9953,14.69,72710.8,-5.01,-21.23,-18.93,0,*63
1494208975.11,9954,14.69,72714.5,-5.03,-21.23,-19.03,0,*6E
1494208976.36,9955,14.69,72708.5,-4.97,-21.03,-18.99,0,*63
1494208977.58,9956,14.75,72710.5,-4.97,-21.13,-18.99,0,*61
1494208978.8,9957,14.69,72704.3,-5.01,-21.23,-19.07,0,*6B
1494208980.01,9958,14.69,72706.3,-5.01,-21.23,-19.03,0,*60
1494208981.28,9959,14.69,72708.0,-5.03,-21.03,-18.89,0,*62
1494208982.53,9960,14.69,72712.8,-5.03,-21.03,-19.03,0,*6B
1494208983.78,9961,14.69,72706.8,-5.01,-21.23,-19.31,0,*6B
1494208984.99,9962,14.69,72708.0,-5.01,-21.09,-18.89,0,*62
1494208986.2,9963,14.69,72710.5,-5.01,-21.03,-19.07,0,*6E
1494208987.45,9964,14.69,72708.5,-5.01,-21.03,-18.93,0,*65
1494208988.71,9965,14.69,72712.0,-4.97,-20.59,-18.55,0,*6E
1494208989.94,9966,14.69,72712.0,-4.97,-20.43,-18.45,0,*67
1494208991.16,9967,14.69,72714.8,-5.01,-20.89,-18.89,0,*6E
1494208992.38,9968,14.69,72718.3,-5.01,-20.93,-18.93,0,*61
1494208993.6,9969,14.69,72716.8,-4.97,-20.89,-18.83,0,*64
1494208994.83,9970,14.69,72716.8,-4.97,-20.73,-18.73,0,*66
1494208996.08,9971,14.69,72718.3,-4.97,-20.99,-19.03,0,*65
1494208997.31,9972,14.69,72722.3,-4.97,-21.13,-19.17,0,*60
1494208998.53,9973,14.69,72722.0,-4.97,-21.13,-19.03,0,*64
1494208999.78,9974,14.69,72716.8,-4.97,-21.03,-19.13,0,*63
1494209001.06,9975,14.69,72712.3,-4.97,-20.99,-18.89,0,*62
1494209002.34,9976,14.69,72712.8,-4.97,-21.27,-19.27,0,*60
1494209003.62,9977,14.69,72710.3,-4.97,-21.33,-19.27,0,*64
1494209004.8,9978,14.69,72716.5,-5.01,-21.09,-19.03,0,*6A
1494209006.0,9979,14.69,72722.5,-5.01,-21.39,-19.17,0,*6D
1494209007.19,9980,14.69,72722.0,-5.01,-21.17,-19.03,0,*62
1494209008.41,9981,14.69,72716.5,-5.01,-21.43,-19.23,0,*60
1494209009.6,9982,14.69,72716.8,-5.01,-21.43,-19.37,0,*66
1494209010.85,9983,14.69,72714.8,-5.03,-21.09,-18.93,0,*64
1494209012.09,9984,14.69,72716.8,-5.03,-21.09,-18.93,0,*63
1494209013.28,9985,14.69,72710.8,-5.01,-21.09,-18.79,0,*64
1494209014.47,9986,14.69,72708.3,-5.01,-20.93,-18.79,0,*65
1494209015.71,9987,14.69,72708.0,-5.03,-20.93,-18.59,0,*64
1494209016.95,9988,14.69,72704.5,-4.97,-20.73,-18.55,0,*65
1494209018.18,9989,14.69,72710.8,-4.97,-20.39,-18.25,0,*6D
1494209019.45,9990,14.69,72720.0,-4.97,-20.83,-18.59,0,*6F
1494209020.64,9991,14.69,72716.8,-4.95,-21.13,-18.83,0,*63
1494209021.89,9992,14.69,72716.5,-4.97,-20.99,-18.73,0,*6E
1494209023.14,9993,14.69,72722.5,-4.97,-20.99,-18.83,0,*60
1494209024.39,9994,14.69,72718.0,-4.97,-21.27,-19.03,0,*6A
1494209025.61,9995,14.69,72718.8,-4.97,-21.17,-18.99,0,*6A
1494209026.87,9996,14.69,72718.5,-4.97,-21.27,-19.13,0,*69
1494209028.1,9997,14.69,72720.0,-4.97,-21.17,-19.13,0,*6B
1494209029.33,9998,14.69,72718.0,-4.97,-21.17,-19.13,0,*64
1494209030.55,9999,14.69,72718.8,-4.97,-21.13,-18.99,0,*62
1494209031.81,10000,14.69,72718.3,-4.97,-21.03,-18.69,0,*5D
1494209033.06,10001,14.69,72722.5,-4.97,-21.27,-19.03,0,*57
1494209034.29,10002,14.69,72720.8,-4.97,-21.17,-19.03,0,*57
1494209035.55,10003,14.69,72724.5,-4.97,-21.27,-19.13,0,*54
1494209036.8,10004,14.69,72724.5,-5.03,-21.43,-19.31,0,*5D
1494209038.06,10005,14.69,72722.8,-4.97,-21.39,-19.27,0,*5A
1494209039.28,10006,14.69,72720.0,-5.01,-21.23,-19.03,0,*5A
1494209040.48,10007,14.69,72720.0,-5.01,-21.39,-19.07,0,*54
1494209041.7,10008,14.69,72722.0,-5.01,-21.23,-19.07,0,*50
1494209042.93,10009,14.69,72722.8,-4.97,-21.39,-19.17,0,*55
1494209044.19,10010,14.69,72720.3,-4.97,-21.47,-19.31,0,*50
1494209045.45,10011,14.69,72720.3,-4.97,-21.53,-19.47,0,*55
1494209046.69,10012,14.69,72720.8,-5.01,-21.73,-19.57,0,*5B
1494209047.95,10013,14.69,72720.0,-5.01,-21.67,-19.57,0,*5F
1494209049.21,10014,14.69,72718.5,-5.03,-21.67,-19.51,0,*5C
1494209050.46,10015,14.69,72718.3,-5.01,-21.57,-19.31,0,*5A
1494209051.7,10016,14.69,72718.3,-5.01,-21.67,-19.37,0,*5C
1494209052.93,10017,14.69,72722.3,-5.05,-21.57,-19.37,0,*5A
1494209054.17,10018,14.69,72716.0,-5.05,-21.73,-19.57,0,*55
1494209055.41,10019,14.69,72720.8,-5.01,-21.67,-19.37,0,*53
1494209056.69,10020,14.69,72720.0,-5.03,-21.53,-19.23,0,*59
1494209057.95,10021,14.69,72718.0,-5.03,-21.53,-19.17,0,*5F
1494209059.2,10022,14.69,72718.0,-5.03,-21.39,-18.93,0,*5D
1494209060.47,10023,14.69,72720.3,-5.03,-21.57,-19.23,0,*5E
1494209061.7,10024,14.69,72716.0,-5.01,-21.57,-19.37,0,*5E
1494209062.93,10025,14.69,72716.0,-5.03,-21.73,-19.51,0,*5B
1494209064.22,10026,14.69,72718.5,-5.03,-21.87,-19.57,0,*55
1494209065.43,10027,14.69,72716.3,-5.05,-22.03,-19.71,0,*59
1494209066.66,10028,14.69,72716.0,-5.07,-21.93,-19.71,0,*5E
1494209067.93,10029,14.69,72718.5,-5.05,-21.87,-19.57,0,*5C
1494209069.22,10030,14.69,72720.3,-5.03,-21.87,-19.57,0,*52
1494209070.5,10031,14.69,72720.8,-5.07,-21.87,-19.61,0,*52
1494209071.76,10032,14.69,72720.0,-5.07,-22.03,-19.61,0,*5E
1494209073.02,10033,14.69,72722.0,-5.07,-21.93,-19.61,0,*55
1494209074.28,10034,14.69,72722.8,-5.07,-21.93,-19.57,0,*57
1494209075.57,10035,14.69,72724.5,-5.07,-21.87,-19.41,0,*54
1494209076.83,10036,14.69,72720.8,-5.07,-21.93,-19.41,0,*52
1494209078.11,10037,14.69,72720.5,-5.07,-21.87,-19.41,0,*56
1494209079.37,10038,14.69,72722.3,-5.09,-21.97,-19.61,0,*54
1494209080.59,10039,14.69,72718.5,-5.09,-22.07,-19.61,0,*5F
1494209081.82,10040,14.69,72722.3,-5.09,-22.07,-19.65,0,*55
1494209083.04,10041,14.69,72716.3,-5.09,-22.07,-19.61,0,*50
1494209084.3,10042,14.69,72722.0,-5.07,-22.03,-19.61,0,*59
1494209085.56,10043,14.69,72720.8,-5.11,-21.87,-19.37,0,*53
1494209086.81,10044,14.69,72720.8,-5.11,-21.97,-19.47,0,*52
1494209088.06,10045,14.69,72718.5,-5.09,-21.97,-19.61,0,*5E
1494209089.34,10046,14.69,72720.5,-5.11,-21.97,-19.65,0,*50
1494209090.55,10047,14.69,72720.3,-5.09,-21.77,-19.17,0,*53
1494209091.76,10048,14.69,72716.5,-5.09,-21.63,-19.13,0,*5D
1494209092.99,10049,14.69,72720.3,-5.09,-21.67,-19.17,0,*5C
1494209094.23,10050,14.69,72714.5,-5.09,-21.93,-19.41,0,*5C
1494209095.46,10051,14.69,72716.8,-5.09,-22.11,-19.65,0,*52
1494209096.71,10052,14.69,72718.8,-5.11,-21.97,-19.37,0,*52
1494209097.94,10053,14.69,72720.8,-5.11,-22.03,-19.51,0,*5D
1494209099.14,10054,14.69,72720.8,-5.09,-22.03,-19.51,0,*53
1494209100.4,10055,14.69,72720.0,-5.09,-21.87,-19.23,0,*58
1494209101.62,10056,14.69,72718.8,-5.11,-21.73,-19.07,0,*5F
1494209102.9,10057,14.69,72714.3,-5.11,-21.57,-18.93,0,*54
1494209104.15,10058,14.69,72714.8,-5.09,-21.83,-19.31,0,*52
1494209105.39,10059,14.69,72714.5,-5.09,-21.83,-19.17,0,*57
1494209106.62,10060,14.69,72718.3,-5.11,-21.73,-19.17,0,*5B
1494209107.85,10061,14.69,72718.0,-5.09,-21.53,-19.03,0,*54
1494209109.11,10062,14.69,72714.8,-5.11,-21.83,-19.17,0,*56
1494209110.38,10063,14.69,72716.3,-5.11,-21.83,-19.23,0,*50
1494209111.64,10064,14.69,72718.3,-5.11,-21.87,-19.37,0,*56
1494209112.87,10065,14.69,72716.8,-5.09,-21.77,-19.23,0,*54
1494209114.13,10066,14.69,72718.5,-5.09,-21.97,-19.41,0,*5D
1494209115.36,10067,14.69,72716.5,-5.11,-22.11,-19.51,0,*59
1494209116.61,10068,14.69,72718.0,-5.11,-21.83,-19.17,0,*5C
1494209117.84,10069,14.69,72716.3,-5.11,-21.73,-19.17,0,*52
1494209119.1,10070,14.69,72714.5,-5.11,-21.67,-19.03,0,*5A
1494209120.33,10071,14.69,72718.5,-5.11,-21.39,-18.73,0,*56
1494209121.58,10072,14.69,72714.0,-5.11,-21.33,-18.73,0,*5F
1494209122.81,10073,14.69,72712.3,-5.11,-21.47,-18.73,0,*5D
1494209124.04,10074,14.69,72714.5,-5.09,-21.33,-18.69,0,*5B
1494209125.25,10075,14.69,72714.5,-5.09,-21.17,-18.49,0,*5E
1494209126.45,10076,14.69,72714.0,-5.09,-21.17,-18.41,0,*55
1494209127.7,10077,14.69,72712.0,-5.09,-21.27,-18.59,0,*5E
1494209128.93,10078,14.69,72718.3,-5.09,-21.23,-18.41,0,*5C
1494209130.14,10079,14.69,72716.5,-5.09,-21.17,-18.49,0,*52
1494209131.37,10080,14.69,72716.5,-5.07,-20.93,-18.07,0,*5D
1494209132.62,10081,14.69,72718.3,-5.07,-21.27,-18.65,0,*56
1494209133.85,10082,14.69,72720.3,-5.07,-21.39,-18.69,0,*56
1494209135.05,10083,14.69,72720.3,-5.09,-21.47,-18.83,0,*54
1494209136.31,10084,14.69,72722.3,-5.09,-21.53,-18.89,0,*5C
1494209137.56,10085,14.69,72724.8,-5.11,-21.39,-18.89,0,*58
1494209138.79,10086,14.69,72724.8,-5.09,-21.27,-18.73,0,*58
1494209140.02,10087,14.69,72726.8,-5.09,-21.13,-18.55,0,*5A
1494209141.23,10088,14.69,72720.3,-5.09,-21.13,-18.73,0,*51
1494209142.45,10089,14.69,72722.5,-5.09,-21.33,-18.83,0,*5D
1494209143.71,10090,14.69,72716.3,-5.11,-21.23,-18.73,0,*52
1494209144.93,10091,14.69,72718.8,-5.09,-21.43,-18.89,0,*59
1494209146.18,10092,14.69,72714.5,-5.07,-21.27,-18.83,0,*5C
1494209147.41,10093,14.69,72716.0,-5.09,-21.27,-18.99,0,*58
1494209148.61,10094,14.69,72714.3,-5.09,-21.43,-19.03,0,*5F
1494209149.8,10095,14.69,72714.5,-5.09,-21.43,-19.03,0,*5E
1494209151.0,10096,14.69,72712.3,-5.09,-21.43,-19.03,0,*5D
1494209152.22,10097,14.69,72708.5,-5.11,-21.47,-19.03,0,*51
1494209153.42,10098,14.69,72718.3,-5.09,-21.43,-19.03,0,*53
1494209154.7,10099,14.69,72724.8,-5.11,-21.53,-19.23,0,*58
1494209155.93,10100,14.69,72722.8,-5.09,-21.17,-18.89,0,*51
1494209157.13,10101,14.69,72712.8,-5.09,-21.17,-18.83,0,*5A
1494209158.38,10102,14.69,72708.8,-5.11,-21.17,-18.89,0,*5A
1494209159.61,10103,14.69,72708.5,-5.09,-21.03,-18.69,0,*59
1494209160.85,10104,14.69,72710.5,-5.09,-20.99,-18.69,0,*5C
1494209162.1,10105,14.69,72718.3,-5.09,-20.83,-18.55,0,*59
1494209163.35,10106,14.69,72716.5,-5.05,-20.79,-18.55,0,*53
1494209164.57,10107,14.69,72724.5,-5.07,-21.09,-18.79,0,*58
1494209165.79,10108,14.69,72724.0,-5.07,-21.09,-18.79,0,*57
1494209167.01,10109,14.69,72722.0,-5.07,-21.09,-18.83,0,*53
1494209168.26,10110,14.69,72722.0,-5.07,-21.23,-19.07,0,*5E
1494209169.51,10111,14.69,72718.8,-5.07,-21.27,-19.07,0,*5B
1494209170.79,10112,14.69,72720.3,-5.07,-21.23,-18.93,0,*50
1494209172.03,10113,14.69,72716.3,-5.07,-21.27,-19.07,0,*59
1494209173.26,10114,14.69,72722.3,-5.07,-21.09,-18.65,0,*57
1494209174.49,10115,14.69,72718.0,-5.07,-21.13,-18.69,0,*51
1494209175.69,10116,14.69,72722.0,-5.05,-21.13,-18.83,0,*54
1494209176.95,10117,14.69,72716.8,-5.07,-21.47,-19.27,0,*59
1494209178.2,10118,14.69,72718.3,-5.07,-21.47,-19.23,0,*52
1494209179.41,10119,14.69,72718.5,-5.05,-21.63,-19.37,0,*52
1494209180.64,10120,14.69,72720.0,-5.07,-21.73,-19.37,0,*5B
1494209181.85,10121,14.69,72716.8,-5.09,-21.47,-19.13,0,*55
1494209183.08,10122,14.69,72722.8,-5.09,-21.53,-19.03,0,*52
1494209184.31,10123,14.69,72724.5,-5.09,-21.77,-19.31,0,*54
1494209185.57,10124,14.69,72726.3,-5.09,-21.67,-19.31,0,*52
1494209186.77,10125,14.69,72720.5,-5.09,-21.47,-19.03,0,*50
1494209188.01,10126,14.69,72716.8,-5.09,-21.53,-19.17,0,*53
1494209189.27,10127,14.69,72718.8,-5.09,-21.83,-19.31,0,*5B
1494209190.5,10128,14.69,72724.3,-5.09,-21.83,-19.17,0,*50
1494209191.73,10129,14.69,72722.5,-5.09,-21.77,-19.27,0,*59
1494209192.99,10130,14.69,72720.8,-5.07,-21.77,-19.27,0,*5F
1494209194.2,10131,14.69,72726.0,-5.09,-21.63,-19.13,0,*52
1494209195.43,10132,14.69,72728.3,-5.09,-21.67,-19.17,0,*51
1494209196.66,10133,14.69,72730.3,-5.09,-21.33,-18.73,0,*52
1494209197.9,10134,14.69,72730.3,-5.09,-21.47,-18.93,0,*58
1494209199.11,10135,14.69,72726.5,-5.09,-21.77,-19.13,0,*53
1494209200.39,10136,14.69,72720.3,-5.11,-21.83,-19.31,0,*52
1494209201.62,10137,14.69,72720.3,-5.09,-21.93,-19.31,0,*5B
1494209202.88,10138,14.69,72718.3,-5.11,-21.87,-19.37,0,*5E
1494209204.11,10139,14.69,72722.3,-5.09,-21.67,-19.03,0,*5F
1494209205.39,10140,14.69,72722.8,-5.11,-21.53,-18.93,0,*57
1494209206.59,10141,14.69,72720.3,-5.09,-21.63,-19.07,0,*50
1494209207.79,10142,14.69,72724.0,-5.09,-21.77,-19.03,0,*52
1494209209.02,10143,14.69,72722.8,-5.09,-21.53,-18.99,0,*57
1494209210.3,10144,14.69,72720.5,-5.11,-21.53,-18.89,0,*58
1494209211.53,10145,14.69,72722.3,-5.09,-21.33,-18.73,0,*53
1494209212.78,10146,14.69,72722.8,-5.11,-21.67,-19.07,0,*5A
1494209214.07,10147,14.69,72720.3,-5.11,-21.87,-19.31,0,*50
1494209215.34,10148,14.69,72724.8,-5.11,-21.83,-19.23,0,*58
1494209216.63,10149,14.69,72722.8,-5.11,-21.87,-19.31,0,*5E
1494209217.88,10150,14.69,72718.5,-5.11,-21.53,-19.03,0,*5E
1494209219.13,10151,14.69,72722.5,-5.11,-21.57,-19.03,0,*5B
1494209220.37,10152,14.69,72720.5,-5.11,-21.67,-19.07,0,*5F
1494209221.63,10153,14.69,72722.0,-5.11,-21.67,-19.03,0,*5A
1494209222.86,10154,14.69,72720.0,-5.11,-21.73,-19.17,0,*5D
1494209224.13,10155,14.69,72722.5,-5.11,-21.83,-19.23,0,*54
1494209225.41,10156,14.69,72724.3,-5.11,-21.83,-19.23,0,*57
1494209226.67,10157,14.69,72726.0,-5.09,-21.83,-19.31,0,*5C
1494209227.94,10158,14.69,72720.0,-5.11,-21.83,-19.23,0,*59
1494209229.22,10159,14.69,72724.3,-5.11,-21.83,-19.23,0,*58
1494209230.45,10160,14.69,72724.8,-5.11,-21.73,-19.17,0,*5A
1494209231.74,10161,14.69,72724.5,-5.11,-21.53,-18.93,0,*54
1494209232.98,10162,14.69,72726.0,-5.11,-21.57,-19.07,0,*5F
1494209234.23,10163,14.69,72726.8,-5.11,-21.67,-19.07,0,*5D
1494209235.49,10164,14.69,72726.8,-5.11,-21.33,-18.73,0,*59
1494209236.71,10165,14.69,72726.8,-5.11,-21.47,-18.79,0,*51
1494209237.93,10166,14.69,72724.3,-5.11,-21.73,-19.07,0,*5D
1494209239.18,10167,14.69,72724.5,-5.11,-21.67,-19.03,0,*5D
1494209240.39,10168,14.69,72724.8,-5.09,-21.77,-19.17,0,*5F
1494209241.67,10169,14.69,72726.0,-5.11,-21.83,-19.23,0,*5B
1494209242.9,10170,14.69,72724.0,-5.11,-21.73,-19.17,0,*5B
1494209244.15,10171,14.69,72724.0,-5.11,-22.03,-19.31,0,*5A
1494209245.4,10172,14.69,72722.0,-5.11,-22.03,-19.31,0,*59
1494209246.68,10173,14.69,72722.5,-5.11,-21.87,-19.23,0,*54
1494209247.96,10174,14.69,72722.5,-5.11,-21.87,-19.23,0,*53
1494209249.22,10175,14.69,72722.0,-5.11,-21.83,-19.17,0,*51
1494209250.48,10176,14.69,72718.3,-5.11,-21.87,-19.37,0,*54
1494209251.73,10177,14.69,72722.5,-5.09,-21.97,-19.31,0,*5B
1494209252.99,10178,14.69,72724.8,-5.11,-22.17,-19.47,0,*57
1494209254.26,10179,14.69,72724.0,-5.13,-22.17,-19.65,0,*54
1494209255.51,10180,14.69,72722.0,-5.13,-22.31,-19.65,0,*56
1494209256.75,10181,14.69,72726.3,-5.13,-22.17,-19.47,0,*53
1494209257.98,10182,14.69,72730.0,-5.13,-21.97,-19.17,0,*5E
1494209259.22,10183,14.69,72728.3,-5.17,-21.87,-19.13,0,*5E
1494209260.42,10184,14.69,72734.0,-5.13,-21.73,-19.07,0,*53
1494209261.65,10185,14.69,72728.8,-5.13,-21.97,-19.17,0,*59
1494209262.9,10186,14.69,72726.0,-5.11,-21.87,-19.07,0,*58
1494209264.15,10187,14.69,72724.3,-5.11,-22.03,-19.31,0,*53
1494209265.38,10188,14.69,72720.5,-5.13,-22.17,-19.51,0,*5D
1494209266.62,10189,14.69,72726.5,-5.17,-22.37,-19.57,0,*5C
1494209267.88,10190,14.69,72722.5,-5.13,-22.31,-19.65,0,*57
1494209269.15,10191,14.69,72722.5,-5.17,-22.31,-19.57,0,*53
1494209270.41,10192,14.69,72722.5,-5.17,-22.31,-19.57,0,*50
1494209271.67,10193,14.69,72724.0,-5.17,-22.31,-19.65,0,*50
1494209272.88,10194,14.69,72724.0,-5.17,-22.37,-19.75,0,*50
1494209274.14,10195,14.69,72722.3,-5.17,-22.17,-19.41,0,*54
1494209275.41,10196,14.69,72724.3,-5.17,-22.21,-19.57,0,*55
1494209276.61,10197,14.69,72724.0,-5.17,-22.37,-19.75,0,*53
1494209277.82,10198,14.69,72724.8,-5.17,-22.37,-19.75,0,*5C
1494209279.09,10199,14.69,72726.5,-5.17,-22.31,-19.57,0,*5B
1494209280.33,10200,14.69,72722.8,-5.17,-22.17,-19.37,0,*5A
1494209281.55,10201,14.69,72730.5,-5.17,-22.07,-19.23,0,*5F
1494209282.77,10202,14.69,72728.0,-5.17,-22.07,-19.27,0,*58
1494209284.03,10203,14.69,72728.8,-5.17,-22.17,-19.41,0,*58
1494209285.26,10204,14.69,72728.8,-5.17,-22.07,-19.27,0,*5E
1494209286.51,10205,14.69,72726.5,-5.19,-22.07,-19.27,0,*51
1494209287.74,10206,14.69,72724.5,-5.19,-21.93,-19.03,0,*5A
1494209289.0,10207,14.69,72726.5,-5.19,-21.83,-19.17,0,*5F
1494209290.21,10208,14.69,72726.3,-5.17,-21.93,-19.13,0,*5B
1494209291.44,10209,14.69,72726.3,-5.17,-22.21,-19.51,0,*56
1494209292.7,10210,14.69,72726.3,-5.17,-22.31,-19.41,0,*5E
1494209293.96,10211,14.69,72724.8,-5.19,-22.41,-19.61,0,*54
1494209295.22,10212,14.69,72726.8,-5.19,-22.37,-19.57,0,*53
1494209296.48,10213,14.69,72724.5,-5.19,-22.41,-19.61,0,*56
1494209297.69,10214,14.69,72726.0,-5.21,-22.41,-19.75,0,*5F